Terug naar catalogus

GEESAT 4-11

ActiefCommunicatieLEO
NORAD 65129·PAYLOAD·🇨🇳 China

Gelanceerd Aug 8, 2025 vanaf Yellow Sea Launch Area

Loading…

Volgende Passages (komende 24 uur)

TLE

VersSource: Space-Track

Epoch: Sep 14, 2026, 14:10 UTC

1 65129U 25170L   26257.59091509  .00001173  00000-0  16546-3 0  9995
2 65129  49.9835 119.0009 0007260  74.4308 285.7432 14.84260070 59719

Volg GEESAT 4-11 in realtime met AllMySat

Download on the App Store